Time,TemperatureF,DewpointF,PressureIn,WindDirection,WindDirectionDegrees,WindSpeedMPH,WindSpeedGustMPH,Humidity,HourlyPrecipIn,Conditions,Clouds,dailyrainin,SoftwareType,DateUTC
2013-12-04 00:01:00,25.5,25.0,30.01,NNW,337,0.0,-999.0,98,-99.99,,,0.00,Acu-Link.com,2013-12-04 05:01:00,
2013-12-04 00:16:00,25.0,24.5,30.02,NNW,337,0.0,-999.0,98,-99.99,,,0.00,Acu-Link.com,2013-12-04 05:16:00,
2013-12-04 00:32:00,24.1,23.6,30.02,NNW,337,0.0,-999.0,98,-99.99,,,0.00,Acu-Link.com,2013-12-04 05:32:00,
2013-12-04 00:47:00,23.4,22.9,30.02,NNW,337,0.0,-999.0,98,-99.99,,,0.00,Acu-Link.com,2013-12-04 05:47:00,
2013-12-04 01:02:00,22.8,22.3,30.03,NNW,337,0.0,-999.0,98,-99.99,,,0.00,Acu-Link.com,2013-12-04 06:02:00,
2013-12-04 01:17:00,22.5,22.0,30.03,NNW,337,0.0,-999.0,98,-99.99,,,0.00,Acu-Link.com,2013-12-04 06:17:00,
2013-12-04 01:32:00,22.6,22.2,30.02,NNW,337,0.0,-999.0,98,-99.99,,,0.00,Acu-Link.com,2013-12-04 06:32:00,
2013-12-04 01:48:00,22.6,22.2,30.03,NNW,337,0.0,-999.0,98,-99.99,,,0.00,Acu-Link.com,2013-12-04 06:48:00,
2013-12-04 02:03:00,22.5,22.0,30.03,NNW,337,0.0,-999.0,98,-99.99,,,0.00,Acu-Link.com,2013-12-04 07:03:00,
2013-12-04 02:18:00,22.5,22.0,30.04,NNW,337,0.0,-999.0,98,-99.99,,,0.00,Acu-Link.com,2013-12-04 07:18:00,
2013-12-04 02:33:00,21.6,21.1,30.04,NNW,337,0.0,-999.0,98,-99.99,,,0.00,Acu-Link.com,2013-12-04 07:33:00,
2013-12-04 02:48:00,21.9,21.4,30.05,NNW,337,0.0,-999.0,98,-99.99,,,0.00,Acu-Link.com,2013-12-04 07:48:00,
2013-12-04 03:04:00,21.7,21.3,30.05,NNW,337,0.0,-999.0,98,-99.99,,,0.00,Acu-Link.com,2013-12-04 08:04:00,
2013-12-04 03:26:00,21.2,20.7,30.04,NNW,337,0.0,-999.0,98,-99.99,,,0.00,Acu-Link.com,2013-12-04 08:26:00,
2013-12-04 03:41:00,21.2,20.7,30.05,NNW,337,0.0,-999.0,98,-99.99,,,0.00,Acu-Link.com,2013-12-04 08:41:00,
2013-12-04 03:57:00,21.2,20.7,30.05,NNW,337,0.0,-999.0,98,-99.99,,,0.00,Acu-Link.com,2013-12-04 08:57:00,
2013-12-04 04:12:00,21.0,20.5,30.05,NNW,337,0.0,-999.0,98,-99.99,,,0.00,Acu-Link.com,2013-12-04 09:12:00,
2013-12-04 04:27:00,21.4,20.9,30.05,NNW,337,0.0,-999.0,98,-99.99,,,0.00,Acu-Link.com,2013-12-04 09:27:00,
2013-12-04 04:42:00,21.4,20.9,30.05,NNW,337,0.0,-999.0,98,-99.99,,,0.00,Acu-Link.com,2013-12-04 09:42:00,
2013-12-04 04:57:00,21.0,20.5,30.06,NNW,337,0.0,-999.0,98,-99.99,,,0.00,Acu-Link.com,2013-12-04 09:57:00,
2013-12-04 05:13:00,20.8,20.4,30.06,NNW,337,0.0,-999.0,98,-99.99,,,0.00,Acu-Link.com,2013-12-04 10:13:00,
2013-12-04 05:28:00,20.7,20.2,30.07,NNW,337,0.0,-999.0,98,-99.99,,,0.00,Acu-Link.com,2013-12-04 10:28:00,
2013-12-04 05:43:00,21.4,20.9,30.07,NNW,337,0.0,-999.0,98,-99.99,,,0.00,Acu-Link.com,2013-12-04 10:43:00,
2013-12-04 05:58:00,20.1,19.6,30.08,NNW,337,0.0,-999.0,98,-99.99,,,0.00,Acu-Link.com,2013-12-04 10:58:00,
2013-12-04 06:14:00,18.1,17.7,30.09,NNW,337,0.0,-999.0,98,-99.99,,,0.00,Acu-Link.com,2013-12-04 11:14:00,
2013-12-04 06:29:00,17.4,17.0,30.09,NNW,337,0.0,-999.0,98,-99.99,,,0.00,Acu-Link.com,2013-12-04 11:29:00,
2013-12-04 06:44:00,18.0,17.5,30.09,NNW,337,0.0,-999.0,98,-99.99,,,0.00,Acu-Link.com,2013-12-04 11:44:00,
2013-12-04 06:59:00,16.5,16.1,30.10,NNW,337,0.0,-999.0,98,-99.99,,,0.00,Acu-Link.com,2013-12-04 11:59:00,
2013-12-04 07:14:00,16.3,15.9,30.10,NNW,337,0.0,-999.0,98,-99.99,,,0.00,Acu-Link.com,2013-12-04 12:14:00,
2013-12-04 07:30:00,18.1,17.7,30.11,NNW,337,0.0,-999.0,98,-99.99,,,0.00,Acu-Link.com,2013-12-04 12:30:00,
2013-12-04 07:45:00,18.3,17.9,30.11,NNW,337,0.0,-999.0,98,-99.99,,,0.00,Acu-Link.com,2013-12-04 12:45:00,
2013-12-04 08:00:00,18.9,18.4,30.13,NNW,337,0.0,-999.0,98,-99.99,,,0.00,Acu-Link.com,2013-12-04 13:00:00,
2013-12-04 08:15:00,18.0,17.5,30.13,NNW,337,0.0,-999.0,98,-99.99,,,0.00,Acu-Link.com,2013-12-04 13:15:00,
2013-12-04 08:30:00,19.0,18.6,30.13,NNW,337,0.0,-999.0,98,-99.99,,,0.00,Acu-Link.com,2013-12-04 13:30:00,
2013-12-04 08:46:00,19.8,19.3,30.13,NNW,337,0.0,-999.0,98,-99.99,,,0.00,Acu-Link.com,2013-12-04 13:46:00,
2013-12-04 09:01:00,21.7,21.3,30.13,NNW,337,0.0,-999.0,98,-99.99,,,0.00,Acu-Link.com,2013-12-04 14:01:00,
2013-12-04 09:16:00,23.0,22.5,30.13,NNW,337,0.0,-999.0,98,-99.99,,,0.00,Acu-Link.com,2013-12-04 14:16:00,
2013-12-04 09:31:00,24.6,24.1,30.13,NNW,337,0.0,-999.0,98,-99.99,,,0.00,Acu-Link.com,2013-12-04 14:31:00,
2013-12-04 09:46:00,27.9,27.4,30.13,NNW,337,0.0,-999.0,98,-99.99,,,0.00,Acu-Link.com,2013-12-04 14:46:00,
2013-12-04 10:02:00,32.0,31.5,30.15,NNW,337,0.0,-999.0,98,-99.99,,,0.00,Acu-Link.com,2013-12-04 15:02:00,
2013-12-04 10:17:00,33.3,32.8,30.16,NNW,337,0.0,-999.0,98,-99.99,,,0.00,Acu-Link.com,2013-12-04 15:17:00,
2013-12-04 10:32:00,32.9,32.4,30.15,NNW,337,0.0,-999.0,98,-99.99,,,0.00,Acu-Link.com,2013-12-04 15:32:00,
2013-12-04 10:47:00,32.7,31.2,30.15,NNW,337,0.0,-999.0,94,-99.99,,,0.00,Acu-Link.com,2013-12-04 15:47:00,
2013-12-04 11:03:00,33.6,30.2,30.14,NNW,337,0.0,-999.0,87,-99.99,,,0.00,Acu-Link.com,2013-12-04 16:03:00,
2013-12-04 11:18:00,34.0,29.1,30.14,NNW,337,0.0,-999.0,82,-99.99,,,0.00,Acu-Link.com,2013-12-04 16:18:00,
2013-12-04 11:33:00,33.8,27.7,30.13,NNW,337,0.0,-999.0,78,-99.99,,,0.00,Acu-Link.com,2013-12-04 16:33:00,
2013-12-04 11:48:00,34.3,28.8,30.12,NNW,337,0.0,-999.0,80,-99.99,,,0.00,Acu-Link.com,2013-12-04 16:48:00,
2013-12-04 12:03:00,32.9,26.2,30.12,NNW,337,0.0,-999.0,76,-99.99,,,0.00,Acu-Link.com,2013-12-04 17:03:00,
2013-12-04 12:19:00,33.1,25.7,30.12,NNW,337,0.0,-999.0,74,-99.99,,,0.00,Acu-Link.com,2013-12-04 17:19:00,
2013-12-04 12:34:00,34.0,26.6,30.12,NE,45,0.0,-999.0,74,-99.99,,,0.00,Acu-Link.com,2013-12-04 17:34:00,
2013-12-04 12:49:00,34.2,27.7,30.12,SSW,202,0.0,-999.0,77,-99.99,,,0.00,Acu-Link.com,2013-12-04 17:49:00,
2013-12-04 13:04:00,34.7,26.3,30.12,North,0,0.0,-999.0,71,-99.99,,,0.00,Acu-Link.com,2013-12-04 18:04:00,
2013-12-04 13:19:00,35.1,26.6,30.12,North,0,0.0,-999.0,71,-99.99,,,0.00,Acu-Link.com,2013-12-04 18:19:00,
2013-12-04 13:35:00,34.9,26.8,30.11,ENE,67,0.0,-999.0,72,-99.99,,,0.00,Acu-Link.com,2013-12-04 18:35:00,
2013-12-04 13:50:00,34.3,27.3,30.09,North,0,0.0,-999.0,75,-99.99,,,0.00,Acu-Link.com,2013-12-04 18:50:00,
2013-12-04 14:05:00,33.3,27.2,30.10,NNW,337,0.0,-999.0,78,-99.99,,,0.00,Acu-Link.com,2013-12-04 19:05:00,
2013-12-04 14:20:00,33.3,26.2,30.11,NNW,337,0.0,-999.0,75,-99.99,,,0.00,Acu-Link.com,2013-12-04 19:20:00,
2013-12-04 14:35:00,33.8,27.4,30.12,NNW,337,0.0,-999.0,77,-99.99,,,0.00,Acu-Link.com,2013-12-04 19:35:00,
2013-12-04 14:51:00,34.0,28.5,30.13,NNW,337,0.0,-999.0,80,-99.99,,,0.00,Acu-Link.com,2013-12-04 19:51:00,
2013-12-04 15:06:00,32.9,28.0,30.12,NNW,337,0.0,-999.0,82,-99.99,,,0.00,Acu-Link.com,2013-12-04 20:06:00,
2013-12-04 15:21:00,32.5,27.7,30.12,NNW,337,0.0,-999.0,82,-99.99,,,0.00,Acu-Link.com,2013-12-04 20:21:00,
2013-12-04 15:36:00,32.5,27.7,30.13,NNW,337,0.0,-999.0,82,-99.99,,,0.00,Acu-Link.com,2013-12-04 20:36:00,
2013-12-04 15:52:00,32.0,29.7,30.12,NNW,337,0.0,-999.0,91,-99.99,,,0.00,Acu-Link.com,2013-12-04 20:52:00,
2013-12-04 16:07:00,31.1,30.6,30.12,NNW,337,0.0,-999.0,98,-99.99,,,0.00,Acu-Link.com,2013-12-04 21:07:00,
2013-12-04 16:22:00,30.9,29.4,30.14,NNW,337,0.0,-999.0,94,-99.99,,,0.00,Acu-Link.com,2013-12-04 21:22:00,
2013-12-04 16:37:00,30.7,30.2,30.14,NNW,337,0.0,-999.0,98,-99.99,,,0.00,Acu-Link.com,2013-12-04 21:37:00,
2013-12-04 16:52:00,30.7,29.0,30.15,NNW,337,0.0,-999.0,93,-99.99,,,0.00,Acu-Link.com,2013-12-04 21:52:00,
2013-12-04 17:08:00,30.6,30.1,30.16,NNW,337,0.0,-999.0,98,-99.99,,,0.00,Acu-Link.com,2013-12-04 22:08:00,
2013-12-04 17:23:00,30.4,29.9,30.16,NNW,337,0.0,-999.0,98,-99.99,,,0.00,Acu-Link.com,2013-12-04 22:23:00,
2013-12-04 17:38:00,30.4,29.9,30.16,NNW,337,0.0,-999.0,98,-99.99,,,0.00,Acu-Link.com,2013-12-04 22:38:00,
2013-12-04 17:53:00,30.2,29.7,30.15,NNW,337,0.0,-999.0,98,-99.99,,,0.00,Acu-Link.com,2013-12-04 22:53:00,
2013-12-04 18:08:00,30.2,29.7,30.16,NNW,337,0.0,-999.0,98,-99.99,,,0.00,Acu-Link.com,2013-12-04 23:08:00,
2013-12-04 18:24:00,30.0,29.5,30.16,NNW,337,0.0,-999.0,98,-99.99,,,0.00,Acu-Link.com,2013-12-04 23:24:00,
2013-12-04 18:39:00,30.0,29.5,30.17,NNW,337,0.0,-999.0,98,-99.99,,,0.00,Acu-Link.com,2013-12-04 23:39:00,
2013-12-04 18:54:00,30.0,29.5,30.17,NNW,337,0.0,-999.0,98,-99.99,,,0.00,Acu-Link.com,2013-12-04 23:54:00,
2013-12-04 19:09:00,29.8,29.3,30.16,NNW,337,0.0,-999.0,98,-99.99,,,0.00,Acu-Link.com,2013-12-05 00:09:00,
2013-12-04 19:25:00,29.8,29.3,30.17,NNW,337,0.0,-999.0,98,-99.99,,,0.00,Acu-Link.com,2013-12-05 00:25:00,
2013-12-04 19:40:00,29.8,29.3,30.15,NNW,337,0.0,-999.0,98,-99.99,,,0.00,Acu-Link.com,2013-12-05 00:40:00,
2013-12-04 19:55:00,29.8,29.3,30.16,NNW,337,0.0,-999.0,98,-99.99,,,0.00,Acu-Link.com,2013-12-05 00:55:00,
2013-12-04 20:10:00,29.7,29.2,30.15,NNW,337,0.0,-999.0,98,-99.99,,,0.00,Acu-Link.com,2013-12-05 01:10:00,
2013-12-04 20:25:00,29.7,29.2,30.14,NNW,337,0.0,-999.0,98,-99.99,,,0.00,Acu-Link.com,2013-12-05 01:25:00,
2013-12-04 20:41:00,29.5,29.0,30.13,NNW,337,0.0,-999.0,98,-99.99,,,0.00,Acu-Link.com,2013-12-05 01:41:00,
2013-12-04 20:56:00,29.3,28.8,30.14,NNW,337,0.0,-999.0,98,-99.99,,,0.00,Acu-Link.com,2013-12-05 01:56:00,
2013-12-04 21:11:00,29.3,28.6,30.14,ENE,67,2.2,-999.0,97,-99.99,,,0.00,Acu-Link.com,2013-12-05 02:11:00,
2013-12-04 21:26:00,29.1,28.6,30.15,East,90,0.0,-999.0,98,-99.99,,,0.00,Acu-Link.com,2013-12-05 02:26:00,
2013-12-04 21:41:00,29.1,28.6,30.16,NE,45,3.1,-999.0,98,-99.99,,,0.00,Acu-Link.com,2013-12-05 02:41:00,
2013-12-04 21:57:00,28.9,28.4,30.15,North,0,1.6,-999.0,98,-99.99,,,0.00,Acu-Link.com,2013-12-05 02:57:00,
2013-12-04 22:12:00,28.8,28.3,30.15,NE,45,3.1,-999.0,98,-99.99,,,0.00,Acu-Link.com,2013-12-05 03:12:00,
2013-12-04 22:27:00,28.8,28.3,30.15,North,0,0.0,-999.0,98,-99.99,,,0.00,Acu-Link.com,2013-12-05 03:27:00,
2013-12-04 22:42:00,28.8,28.3,30.15,ENE,67,3.8,-999.0,98,-99.99,,,0.00,Acu-Link.com,2013-12-05 03:42:00,
2013-12-04 22:58:00,28.8,28.3,30.14,North,0,0.0,-999.0,98,-99.99,,,0.00,Acu-Link.com,2013-12-05 03:58:00,
2013-12-04 23:13:00,28.6,28.1,30.13,NE,45,3.8,-999.0,98,-99.99,,,0.00,Acu-Link.com,2013-12-05 04:13:00,
2013-12-04 23:28:00,28.6,28.1,30.13,NNW,337,2.7,-999.0,98,-99.99,,,0.00,Acu-Link.com,2013-12-05 04:28:00,
2013-12-04 23:43:00,28.4,27.9,30.13,North,0,0.0,-999.0,98,-99.99,,,0.00,Acu-Link.com,2013-12-05 04:43:00,
2013-12-04 23:58:00,28.4,27.9,30.14,NE,45,3.1,-999.0,98,-99.99,,,0.00,Acu-Link.com,2013-12-05 04:58:00,